Theta_e
312 312 316 318 317 315 312 312 310 310 313 315 313 306 310 315 316 321 323 320 322 325 325 326 326 326 327 326 329 326 329 325 327 330 329 324 327 325 324 328 328 329 332 333 337
313 312 312 313 318 318 316 312 311 311 310 315 314 310 306 315 317 322 315 319 320 322 326 326 325 326 325 326 329 328 328 328 323 325 331 328 325 325 326 326 328 333 335 336 336
312 312 313 313 312 317 318 316 313 312 311 312 315 312 307 315 321 316 306 309 319 319 324 326 326 325 327 325 327 329 331 328 327 328 330 331 329 323 324 326 325 329 335 334 335
311 311 311 312 314 312 316 317 314 313 312 311 315 313 308 316 306 320 317 312 314 320 321 324 326 327 326 325 324 328 325 326 327 325 330 331 329 328 323 322 323 323 334 333 333
309 310 310 311 312 312 311 317 317 314 314 311 314 313 311 317 316 320 320 317 316 320 320 325 325 325 326 322 321 323 324 325 325 324 325 328 330 329 326 324 323 327 334 333 332
308 308 309 310 311 313 311 313 317 317 314 313 312 314 314 312 308 312 320 319 320 319 322 323 323 322 322 321 320 320 322 325 325 323 323 326 327 327 326 323 323 320 326 331 331
307 307 307 308 309 309 312 311 313 317 316 313 313 315 313 309 307 308 314 321 321 320 321 322 323 322 321 322 321 321 322 320 322 323 324 324 326 327 324 324 325 324 319 319 331
306 306 306 306 307 308 310 312 311 313 316 315 313 314 315 312 309 309 311 320 323 323 321 321 322 321 323 321 321 322 321 324 323 323 322 323 326 324 321 322 323 323 321 319 320
304 305 305 306 305 306 307 310 311 310 311 316 315 313 316 313 311 309 310 318 324 322 322 322 322 322 323 323 323 321 322 322 322 320 320 321 324 322 321 321 319 316 317 319 318
303 303 304 306 305 304 307 308 310 311 310 313 315 314 313 314 311 311 309 311 322 322 323 323 321 322 322 322 323 323 322 321 320 319 320 321 320 319 320 319 318 317 316 317 319
303 303 303 304 306 306 306 309 310 311 311 313 315 313 313 312 312 311 309 315 320 320 323 321 323 324 322 323 320 319 319 320 319 318 318 316 318 317 317 318 318 317 316 316 316
302 303 303 304 305 306 307 309 308 309 311 310 311 313 312 312 312 310 309 319 319 321 320 322 323 320 320 322 323 322 322 322 319 318 316 317 317 315 317 318 317 317 316 316 315
302 302 303 303 303 305 307 308 307 307 310 311 310 312 312 312 312 311 310 317 319 320 321 320 318 318 319 321 324 323 323 322 321 319 319 320 320 319 317 317 316 316 316 315 315
301 302 302 301 303 304 306 306 306 307 309 310 312 311 313 312 315 310 309 315 318 318 319 319 316 319 320 321 321 323 319 320 320 321 322 319 323 317 317 317 317 317 315 315 314
300 301 301 302 301 303 304 306 306 306 309 309 311 312 312 313 312 311 309 312 316 318 317 317 318 319 320 321 318 320 318 318 319 320 321 320 324 320 317 318 317 316 313 313 313
300 301 301 302 301 302 302 305 305 308 310 311 311 314 314 313 311 311 311 311 314 316 316 315 315 317 318 318 318 318 319 319 319 320 325 321 320 319 317 317 317 315 313 314 313
300 300 301 301 301 301 302 304 307 309 306 310 311 313 313 314 313 312 313 314 317 318 318 316 316 315 316 318 317 318 319 322 324 324 322 315 320 320 316 315 314 314 312 311 311
300 300 300 300 299 300 302 306 307 307 307 308 311 313 313 313 314 313 314 315 314 314 316 317 318 316 315 317 319 320 320 318 316 319 318 314 321 319 316 316 315 315 315 314 312
300 300 300 300 300 300 301 303 307 307 306 310 310 311 312 314 313 313 314 314 313 314 314 315 314 311 313 315 316 318 321 317 314 309 313 317 318 317 317 316 313 314 315 314 311
299 299 299 299 300 300 301 302 305 305 306 309 311 310 312 312 314 314 314 314 313 314 311 311 313 312 312 314 315 316 316 321 320 320 321 316 318 320 318 317 315 314 311 312 310
298 299 298 298 298 299 302 302 303 303 306 308 310 312 311 312 313 314 313 313 312 312 313 311 310 311 313 316 316 318 318 317 315 314 315 316 318 313 315 315 312 311 312 312 311
297 298 298 298 298 301 302 302 302 303 303 306 306 310 310 313 313 314 313 312 311 311 314 312 313 310 313 313 313 315 317 317 317 318 318 316 317 315 314 313 312 314 312 309 309
298 298 299 298 300 301 301 303 302 303 301 304 306 307 308 312 313 312 312 311 311 311 313 313 314 311 314 314 313 315 316 317 317 314 315 318 316 311 312 311 311 310 309 308 308
297 298 299 299 298 298 300 302 303 303 304 302 305 306 309 311 311 312 312 311 311 311 313 313 313 312 313 312 314 316 315 316 317 318 317 317 315 314 312 311 310 310 307 306 306
297 298 295 300 298 300 299 301 302 303 303 303 304 304 307 312 311 310 311 311 312 312 313 313 314 312 312 311 313 314 315 315 316 316 315 314 313 312 311 311 311 309 307 307 307
294 297 296 299 296 298 300 299 302 304 304 303 304 304 304 305 311 311 311 312 313 312 312 312 314 310 307 312 311 310 311 314 315 315 316 314 314 311 310 307 308 307 307 307 306
295 297 295 299 297 298 298 300 299 300 302 304 303 305 305 306 305 308 309 309 309 312 313 312 310 313 313 310 310 307 309 309 309 311 313 315 314 312 309 310 309 307 306 306 306
Wind_Speed
25 24 21 28 28 26 23 21 18 17 17 14 12 12 13 13 14 12 9 9 9 9 12 14 9 10 7 3 0 3 3 2 4 5 3 3 1 3 4 4 3 3 4 6 28
24 26 28 24 27 28 26 24 23 19 17 15 12 10 11 10 14 17 21 14 15 10 5 4 7 15 0 3 1 3 3 6 5 5 2 4 2 3 3 2 1 5 8 22 25
21 24 26 28 27 26 30 27 25 22 17 17 14 11 8 6 7 8 23 30 23 19 12 5 9 5 2 3 3 4 5 6 10 3 5 2 7 3 4 2 4 7 11 13 18
22 24 24 27 28 28 26 30 28 25 21 18 15 11 8 8 8 1 8 19 29 21 14 6 3 1 2 5 4 3 7 5 7 3 4 2 3 7 2 5 2 4 15 13 13
25 25 26 26 28 28 28 28 30 27 24 19 18 13 9 6 9 2 4 6 26 23 20 7 6 4 5 4 6 4 6 6 8 9 6 3 2 3 8 9 4 8 15 12 12
26 26 25 26 25 26 27 25 29 29 26 23 20 17 7 15 19 18 3 4 20 23 18 15 7 7 4 8 5 3 5 8 8 8 5 5 6 1 4 7 9 6 10 11 16
26 28 28 26 26 25 26 27 23 29 27 25 21 19 12 14 9 24 17 6 17 22 14 23 22 5 3 7 8 6 5 7 4 4 4 6 6 7 9 8 10 11 9 10 17
27 27 26 28 25 25 25 24 26 22 29 26 23 21 9 10 33 18 7 12 10 17 21 18 19 2 5 2 7 3 2 5 2 2 6 2 15 6 8 6 11 12 9 10 11
28 25 27 25 27 26 26 24 23 24 22 27 20 15 9 13 22 34 19 14 14 16 19 15 4 5 2 4 3 2 2 6 8 8 5 9 3 10 12 13 9 10 10 9 10
28 26 24 23 24 26 25 24 22 17 18 16 18 11 11 15 8 20 29 15 12 12 6 5 4 4 5 6 10 8 7 7 6 4 10 17 20 9 9 10 10 9 9 8 8
28 26 26 24 23 23 22 14 6 6 15 9 4 4 4 18 23 18 28 17 12 5 12 7 8 21 26 14 13 8 8 8 5 12 11 9 16 14 11 8 10 10 9 9 10
28 26 26 23 23 24 27 12 15 2 5 21 19 21 14 18 7 13 31 12 13 16 8 7 24 17 10 11 11 12 12 15 5 8 7 9 12 9 9 9 9 11 9 9 8
30 29 27 25 25 25 31 31 27 22 4 6 24 16 19 11 10 21 24 14 17 17 20 14 15 12 15 16 17 17 19 14 6 6 4 2 10 7 5 7 7 8 7 7 10
31 30 28 27 23 27 26 35 30 24 9 10 12 14 12 10 9 24 34 16 7 26 18 13 19 18 13 18 16 19 11 8 6 3 6 2 9 9 4 10 13 13 11 12 10
31 32 29 30 16 19 22 30 25 12 13 13 16 12 15 13 6 14 34 13 16 11 11 16 13 16 18 25 15 12 8 7 6 5 1 12 5 6 6 10 16 11 10 11 11
33 31 30 29 28 22 29 26 22 12 9 11 15 16 19 24 10 12 22 14 6 11 17 21 5 14 16 13 15 4 4 5 4 3 11 18 9 13 12 18 17 12 10 12 12
35 33 31 29 23 30 26 18 10 17 10 8 18 21 26 17 21 10 26 28 15 11 16 18 15 5 11 8 12 7 7 4 5 7 12 8 6 19 12 19 11 12 11 11 10
28 31 33 34 37 23 18 13 17 21 14 6 10 23 28 23 21 19 23 21 25 20 7 14 14 23 14 17 8 15 15 7 8 5 5 4 9 13 17 22 17 19 20 15 9
27 28 24 32 32 29 9 17 10 12 10 16 19 16 18 18 13 22 20 26 30 23 11 13 12 9 10 6 18 9 12 13 5 2 3 3 5 9 9 16 11 9 2 4 3
29 24 25 29 30 25 12 26 8 7 16 9 21 19 25 24 16 23 20 23 22 28 17 6 6 6 21 6 10 9 8 6 5 6 8 4 4 8 4 7 6 6 8 3 5
14 6 13 29 25 8 15 14 5 5 9 14 13 12 21 21 24 20 17 17 27 30 22 7 4 5 12 14 23 5 8 3 4 5 5 1 5 9 15 3 8 7 5 4 1
5 6 15 34 11 4 13 8 9 5 4 6 2 6 9 20 20 21 27 23 31 26 26 16 3 4 23 14 15 19 16 14 6 5 4 1 5 2 8 8 7 2 4 6 5
8 4 19 27 10 9 5 4 2 3 5 7 2 5 12 12 11 8 20 21 29 22 24 19 4 4 4 3 2 15 10 15 7 3 8 8 11 5 3 1 1 5 4 2 5
3 5 3 7 4 5 4 4 4 2 3 5 6 2 3 17 11 19 16 15 22 21 26 19 5 8 11 13 8 11 16 14 15 9 12 10 15 4 9 9 7 6 7 8 7
3 3 5 6 9 6 9 5 7 4 2 9 3 12 9 12 22 8 14 11 15 24 20 15 12 12 5 6 7 9 18 21 20 26 14 21 18 21 14 15 4 2 6 8 8
4 4 1 2 11 17 11 15 11 6 9 7 6 14 18 12 14 11 10 12 12 19 21 9 8 5 2 4 5 4 9 11 19 18 17 17 14 16 6 4 5 5 6 6 5
5 4 5 5 9 11 8 6 18 9 5 5 10 5 9 9 19 10 14 14 14 20 18 11 5 9 10 9 6 5 11 8 5 6 13 12 19 3 2 4 4 5 6 5 5
Wind_Direction
259 261 261 248 249 249 250 251 249 251 249 253 258 257 253 266 273 272 243 216 217 268 274 302 331 305 286 283 222 15 51 246 260 20 339 333 43 352 142 95 46 28 113 163 159
257 259 262 259 250 246 245 245 246 249 245 245 251 256 246 260 273 260 246 221 228 243 266 334 311 335 3 273 260 115 148 228 231 349 94 359 309 159 86 82 128 62 72 134 152
258 257 255 259 257 252 246 243 243 245 245 239 243 246 242 248 289 246 258 230 224 232 233 297 320 329 299 324 240 197 215 264 287 27 21 59 0 329 123 135 212 200 165 157 166
256 260 258 252 254 253 252 242 240 239 241 234 233 235 223 197 234 210 248 220 212 215 216 223 271 253 239 251 247 246 277 254 285 358 339 345 326 339 271 234 232 152 166 158 173
260 255 256 255 252 253 250 245 238 237 235 233 224 218 183 225 230 107 12 218 207 203 198 184 191 189 205 227 270 223 243 254 294 310 291 309 270 245 295 287 280 125 152 166 185
258 258 257 254 252 251 250 248 238 235 232 229 222 212 209 236 228 220 276 145 191 193 196 196 196 207 265 230 226 276 254 251 244 275 290 275 264 140 272 308 313 184 190 182 183
253 256 256 256 252 252 247 244 242 233 229 226 221 209 230 227 235 223 224 222 192 196 180 211 221 180 187 290 269 249 291 305 240 275 279 327 275 229 245 257 269 279 210 209 204
252 250 250 253 253 250 248 243 240 237 231 224 218 208 241 237 231 241 299 208 187 201 200 201 228 249 168 292 349 7 293 248 266 240 268 231 257 236 249 241 260 266 262 215 224
249 249 247 249 249 248 246 243 241 240 237 228 203 195 242 223 234 231 228 210 182 201 205 217 211 184 316 147 341 265 226 230 267 226 257 198 282 243 224 251 251 253 260 248 241
247 246 244 241 247 246 242 240 240 243 230 242 210 167 238 214 205 219 217 226 177 170 125 158 187 175 190 172 212 204 217 234 214 228 225 240 256 251 227 227 259 265 272 270 254
243 242 240 238 238 236 230 221 201 223 201 204 180 196 97 190 199 191 203 209 171 156 183 187 178 206 206 198 203 186 228 227 220 231 247 238 254 249 242 235 244 258 265 265 264
240 237 236 235 233 232 222 210 206 138 209 221 245 210 232 187 166 185 187 182 184 196 158 173 216 212 146 187 197 215 236 251 270 269 212 253 266 245 242 237 222 227 245 261 270
238 235 230 230 228 228 221 220 214 238 252 202 217 214 215 213 205 189 180 186 188 186 199 194 227 182 184 193 200 219 218 231 224 323 275 265 274 261 263 261 271 263 262 255 239
239 234 228 225 228 224 223 222 214 226 240 214 188 213 200 233 230 178 195 175 180 206 193 219 229 184 196 206 197 213 210 215 193 126 242 70 275 247 252 272 269 270 259 256 255
236 229 222 214 216 198 215 210 201 189 233 176 184 172 177 191 124 201 184 203 206 175 179 210 169 193 198 211 191 229 193 200 188 201 84 251 260 279 198 253 257 262 249 244 244
226 223 217 217 212 218 208 195 190 219 216 173 148 179 176 187 189 179 180 190 191 192 210 216 174 184 208 213 195 143 106 194 226 173 237 238 215 264 248 256 261 261 245 254 261
220 218 212 207 213 215 213 194 216 221 140 179 168 175 185 187 182 193 184 188 189 200 198 216 229 211 185 175 191 168 139 217 226 218 242 207 181 242 260 253 247 254 238 246 253
210 212 214 209 214 202 186 222 219 206 175 168 166 181 193 181 196 181 190 189 207 194 167 190 207 223 199 202 174 192 190 195 204 185 230 175 207 244 232 257 247 249 261 261 287
212 210 206 211 208 194 208 226 233 185 176 155 167 184 189 185 175 186 192 192 193 195 194 192 225 199 197 160 179 194 202 201 90 29 64 221 288 305 252 261 244 236 345 93 53
207 201 212 201 203 198 211 224 220 204 162 173 181 187 195 190 174 186 187 194 194 195 196 193 219 213 197 145 226 197 150 186 199 208 235 232 234 242 330 306 319 123 120 113 63
200 197 208 193 188 223 215 209 233 266 158 165 178 194 197 189 200 188 177 178 193 194 198 187 139 203 153 200 197 153 198 170 159 162 194 268 250 220 226 218 120 128 161 113 64
197 186 170 165 190 224 221 154 165 170 117 80 246 184 190 183 193 193 207 202 196 188 194 204 159 168 197 189 194 208 204 189 186 185 199 132 268 275 147 144 109 129 349 5 342
163 147 167 168 208 215 152 122 127 153 132 140 164 215 217 189 188 162 183 204 188 184 184 184 190 142 57 21 329 200 200 199 194 111 196 192 237 277 213 193 30 22 41 335 313
127 160 204 187 181 149 106 145 98 37 144 133 151 165 268 208 208 193 196 167 181 184 194 173 158 195 191 209 147 195 206 198 200 220 212 215 245 266 294 290 332 341 349 29 27
145 171 166 189 174 174 175 166 154 138 194 136 143 202 243 206 190 190 192 175 171 192 183 189 192 193 164 102 144 197 203 210 209 222 212 238 242 261 253 277 270 305 59 44 30
130 145 71 200 183 173 180 199 172 144 170 171 165 193 215 236 215 173 142 158 173 181 190 176 195 131 215 145 136 184 215 214 224 226 224 235 247 243 68 64 4 68 71 55 48
193 127 114 157 168 173 201 179 202 143 240 159 180 188 235 223 240 208 160 172 165 169 188 171 129 174 207 131 93 308 208 184 191 202 211 223 237 285 123 200 107 104 67 43 5